Preview of NWS' New Version of Forecast
This preview is not operational and should not be used for support decisions.

Regional Weather Roundup (RWR)

Issued by National Weather Service (NWS)

                            
000
ASUS46 KSEW 191210
RWRWA 

WASHINGTON REGIONAL WEATHER ROUNDUP
NATIONAL WEATHER SERVICE SEATTLE WA
500 AM PDT FRI APR 19 2019

NOTE:"FAIR" INDICATES FEW OR NO CLOUDS BELOW 12,000 FEET WITH NO 
SIGNIFICANT WEATHER AND/OR OBSTRUCTIONS TO VISIBILITY.

WAZ507-509-555>559-191300-
SEATTLE, TACOMA, EVERETT, AND VICINITY
  
CITY           SKY/WX    TMP DP  RH WIND       PRES   REMARKS
EVERETT        CLOUDY    53  50  89 S6        29.99S                  
6HR MIN TEMP:  53; 6HR MAX TEMP:  55; 6HR PCP:  0.01;                

BOEING FIELD   CLOUDY    56  50  80 S8        29.99F                  
6HR MIN TEMP:  55; 6HR MAX TEMP:  57; 6HR PCP: TRACE;                

RENTON         CLOUDY    56  52  86 S7        30.00S                  
6HR MIN TEMP:  56; 6HR MAX TEMP:  58;                                

SEATAC AIRPORT CLOUDY    53  50  89 SW12      30.00S                  
6HR MIN TEMP:  53; 6HR MAX TEMP:  56;                                

JBLM-MCCHORD   CLOUDY    53  53 100 W5        30.02S                  
6HR MIN TEMP:  53; 6HR MAX TEMP:  55; 6HR PCP: TRACE;                

PUYALLUP       CLOUDY    54  54 100 CALM      30.02S                  
BREMERTON      CLOUDY    52  50  93 SW13      30.00S                  
6HR MIN TEMP:  51; 6HR MAX TEMP:  52; 6HR PCP: TRACE;                

JBLM-FT LEWIS  CLOUDY    54  54 100 W3        30.01S                  
6HR MIN TEMP:  53; 6HR MAX TEMP:  56; 6HR PCP: TRACE;                

TACOMA NARROWS CLOUDY    53  50  89 SW6       30.01F                  
6HR MIN TEMP:  53; 6HR MAX TEMP:  55;                                

$$
 
WAZ001-503-506-510-514-515-191300-
NORTH INTERIOR
  
CITY           SKY/WX    TMP DP  RH WIND       PRES   REMARKS
BELLINGHAM     CLOUDY    53  50  89 S7        29.96F                  
6HR MIN TEMP:  53; 6HR MAX TEMP:  54; 6HR PCP:  0.15;                

FRIDAY HARBOR  CLOUDY    51  50  96 CALM      29.98S FOG              
6HR MIN TEMP:  51; 6HR MAX TEMP:  52; 6HR PCP: TRACE;                

EASTSOUND      CLOUDY    54  54 100 S7        29.96S FOG              
PORT ANGELES   CLOUDY    51  50  96 W6        29.98F                  
6HR MIN TEMP:  51; 6HR MAX TEMP:  52; 6HR PCP:  0.04;                

EDIZ HOOK      CLOUDY    51  50  97 W7        29.98S                  
6HR MIN TEMP:  50; 6HR MAX TEMP:  51; 6HR PCP:  0.02;                

PORT TOWNSEND  CLOUDY    52  52 100 CALM      29.97S FOG              
NAS WHIDBEY    FOG       52  48  86 SW5       30.01S VSB 1            
6HR MIN TEMP:  52; 6HR MAX TEMP:  56; 6HR PCP:  0.05;                

ARLINGTON      RAIN      54  53  97 S5        29.99S                  
6HR MIN TEMP:  54; 6HR MAX TEMP:  56; 6HR PCP:  0.10;                

BURLINGTON     CLOUDY    54  54 100 S6        29.97S                  
$$
 
WAZ020-022-039-040-504-511-512-191300-
SOUTHWEST INTERIOR
  
CITY           SKY/WX    TMP DP  RH WIND       PRES   REMARKS
SHELTON        CLOUDY    53  50  89 SW12      30.01S FOG              
6HR MIN TEMP:  53; 6HR MAX TEMP:  53; 6HR PCP: TRACE;                

OLYMPIA        CLOUDY    54  51  90 SW3       30.02S                  
6HR MIN TEMP:  53; 6HR MAX TEMP:  55; 6HR PCP: TRACE;                

CHEHALIS       CLOUDY    55  54  94 CALM      30.03S                  
KELSO          CLOUDY    54  52  93 NW3       30.05R                  
6HR MIN TEMP:  53; 6HR MAX TEMP:  58; 6HR PCP: TRACE;                

VANCOUVER      MOCLDY    54  51  90 CALM      30.01S                  
6HR MIN TEMP:  54; 6HR MAX TEMP:  62;                                

SCAPPOOSE, OR  MOCLDY    55  50  83 CALM      30.01F                  
6HR MIN TEMP:  54; 6HR MAX TEMP:  60;                                

PORTLAND, OR   CLOUDY    55  50  83 NW5       30.02S                  
6HR MIN TEMP:  55; 6HR MAX TEMP:  61;                                

$$
 
WAZ021-516-517-191300-
WASHINGTON COAST
  
CITY           SKY/WX    TMP DP  RH WIND       PRES   REMARKS
FORKS          CLOUDY    50  50 100 CALM      29.99F FOG              
6HR MIN TEMP:  50; 6HR MAX TEMP:  51; 6HR PCP:  0.31;                

HOQUIAM        LGT RAIN  51  51 100 S7        30.03F FOG              
6HR MIN TEMP:  51; 6HR MAX TEMP:  52; 6HR PCP:  0.04;                

ASTORIA, OR    CLOUDY    52  51  97 SW5       30.04F FOG              
6HR MIN TEMP:  52; 6HR MAX TEMP:  55;                                

$$
 
WAZ019-023-024-040-567>569-191300-
CASCADE MOUNTAINS AND COLUMBIA GORGE
  
CITY           SKY/WX    TMP DP  RH WIND       PRES   REMARKS
STAMPEDE PASS  MOCLDY    47  44  90 W6        30.00S FOG              
6HR MIN TEMP:  46; 6HR MAX TEMP:  48;                                

TROUTDALE, OR  MOCLDY    56  51  84 W3        30.01S                  
6HR MIN TEMP:  54; 6HR MAX TEMP:  63;                                

HOOD RIVER, OR PTSUNNY   52  50  93 MISG      29.98S                  
THE DALLES, OR PTCLDY    60  50  69 N8        29.95F                  
6HR MIN TEMP:  59; 6HR MAX TEMP:  69;                                

$$

WAZ026-027-041>044-520-521-191300-
EAST SLOPES
  
CITY           SKY/WX    TMP DP  RH WIND       PRES   REMARKS
OMAK           PTCLDY    48  42  80 NW6       29.87F                  
6HR MIN TEMP:  47; 6HR MAX TEMP:  64;                                

WENATCHEE      MOCLDY    52  47  83 CALM      29.90F                  
6HR MIN TEMP:  51; 6HR MAX TEMP:  58;                                

ELLENSBURG     MOCLDY    53  47  79 SE3       29.94F                  
6HR MIN TEMP:  53; 6HR MAX TEMP:  59;                                

YAKIMA         CLOUDY    59  48  67 VRB5      29.93F                  
6HR MIN TEMP:  57; 6HR MAX TEMP:  65;                                

SUNNYSIDE ARPT PTSUNNY   55  50  83 CALM      29.92F                  
6HR MIN TEMP:  52; 6HR MAX TEMP:  60;                                

YAKIMA TC      PTSUNNY   54  48  79 CALM      29.92F                  
6HR MIN TEMP:  54; 6HR MAX TEMP:  61;                                

$$

WAZ028-034-035-191300-
COLUMBIA BASIN
  
CITY           SKY/WX    TMP DP  RH WIND       PRES   REMARKS
EPHRATA        CLOUDY    56  50  80 NW3       29.90F                  
6HR MIN TEMP:  53; 6HR MAX TEMP:  61; 6HR PCP: TRACE;                

MOSES LAKE     CLOUDY    60  49  66 CALM      29.91F                  
6HR MIN TEMP:  58; 6HR MAX TEMP:  63;                                

PASCO          PTCLDY    60  53  77 SE3       29.92F                  
6HR MIN TEMP:  58; 6HR MAX TEMP:  68; 6HR PCP: TRACE;                

RICHLAND ARPT  PTSUNNY   58  52  79 CALM      29.92                   
6HR MIN TEMP:  57; 6HR MAX TEMP:  68;                                

HERMISTON, OR  CLEAR     52  48  86 E3        29.94S                  
6HR MIN TEMP:  52; 6HR MAX TEMP:  64;                                

$$

WAZ036>038-191300-
NORTHEAST WASHINGTON
  
CITY           SKY/WX    TMP DP  RH WIND       PRES   REMARKS
SPOKANE GEIGER CLOUDY    55  46  71 S7        29.95F                  
6HR MIN TEMP:  55; 6HR MAX TEMP:  57; 6HR PCP: TRACE;                

SPOKANE FELTS  CLOUDY    55  48  77 E5        29.95F                  
6HR MIN TEMP:  53; 6HR MAX TEMP:  59; 6HR PCP: TRACE;                

FAIRCHILD AFB  CLOUDY    53  53  98 S9        29.94F                  
6HR MIN TEMP:  53; 6HR MAX TEMP:  54; 6HR PCP: TRACE;                

COEURDALENE,ID LGT RAIN  53  47  79 SE8       29.97F                  
6HR MIN TEMP:  50; 6HR MAX TEMP:  56; 6HR PCP: TRACE;                

DEER PARK      CLOUDY    49  46  90 NW7       29.95F                  
6HR MIN TEMP:  48; 6HR MAX TEMP:  53;                                

$$

WAZ029>033-191300-
SOUTHEAST WASHINGTON
  
CITY           SKY/WX    TMP DP  RH WIND       PRES   REMARKS
PULLMAN        MOCLDY    54  47  77 NE3       30.01S                  
6HR MIN TEMP:  54; 6HR MAX TEMP:  58; 6HR PCP: TRACE;                

LEWISTON, ID   PTCLDY    55  47  74 E6        29.98F                  
6HR MIN TEMP:  53; 6HR MAX TEMP:  60; 6HR PCP: TRACE;                

WALLA WALLA    MOCLDY    58  47  66 E6        29.94F                  
6HR MIN TEMP:  57; 6HR MAX TEMP:  65;                                

PENDLETON, OR  CLEAR     54  46  74 SE8       29.96F                  
6HR MIN TEMP:  53; 6HR MAX TEMP:  58;                                

$$